FW7383 Weather Reports


time (UTC)temp
C
wind
direction
speed
KPH
gust
KPH
rain 1hr
cm
rain 24hr
cm
rain mn
cm
humidity
%
barometer
mb
20260510064032 11 328 0.0 8.0 0.00 0.00 0.00 83 1015.3
20260510063600 11 311 0.0 8.0 0.00 0.00 0.00 83 1015.4
20260510063022 11 303 0.0 9.7 0.00 0.00 0.00 83 1015.3
20260510062548 11 292 0.0 9.7 0.00 0.00 0.00 84 1015.4
20260510062017 11 304 1.6 8.0 0.00 0.00 0.00 84 1015.5
20260510061544 11 22 1.6 8.0 0.00 0.00 0.00 85 1015.5
20260510061005 11 286 0.0 6.4 0.00 0.00 0.00 85 1015.5
20260510060620 11 314 0.0 4.8 0.00 0.00 0.00 85 1015.4
20260510060005 11 14 0.0 9.7 0.00 0.00 0.00 84 1015.4
20260510055503 10 351 1.6 9.7 0.00 0.00 0.00 84 1015.4
20260510055024 10 6 1.6 8.0 0.00 0.00 0.00 84 1015.3
20260510054545 10 315 1.6 8.0 0.00 0.00 0.00 84 1015.3
20260510054051 10 295 1.6 6.4 0.00 0.00 0.00 84 1015.4
20260510053602 10 314 0.0 6.4 0.00 0.00 0.00 84 1015.2
20260510053053 10 310 0.0 6.4 0.00 0.00 0.00 84 1015.3
20260510052603 10 273 0.0 4.8 0.00 0.00 0.00 84 1015.3
20260510052004 10 4 0.0 4.8 0.00 0.00 0.00 84 1015.2
20260510051528 10 314 0.0 4.8 0.00 0.00 0.00 84 1015.3
20260510051048 10 336 0.0 4.8 0.00 0.00 0.00 84 1015.3
20260510050558 10 340 0.0 4.8 0.00 0.00 0.00 84 1015.3
20260510045556 10 326 0.0 6.4 0.00 0.00 0.00 84 1015.3
20260510045101 10 306 0.0 6.4 0.00 0.00 0.00 84 1015.3
20260510044619 10 279 0.0 0.0 0.00 0.00 0.00 84 1015.4
20260510044126 10 336 0.0 0.0 0.00 0.00 0.00 84 1015.3
20260510043531 10 319 0.0 0.0 0.00 0.00 0.00 84 1015.3
20260510043056 10 279 0.0 0.0 0.00 0.00 0.00 84 1015.3
20260510042504 10 357 0.0 0.0 0.00 0.00 0.00 83 1015.3
20260510042034 10 282 0.0 0.0 0.00 0.00 0.00 83 1015.2
20260510041505 10 330 0.0 0.0 0.00 0.00 0.00 83 1015.2
20260510041030 10 325 0.0 0.0 0.00 0.00 0.00 83 1015.2
20260510040558 10 280 0.0 0.0 0.00 0.00 0.00 83 1015.2
20260510040115 10 319 0.0 3.2 0.00 0.00 0.00 82 1015.1
20260510035525 10 6 0.0 1.6 0.00 0.00 0.00 82 1015.1
20260510035147 10 284 0.0 0.0 0.00 0.00 0.00 82 1015.1
20260510034510 10 346 0.0 0.0 0.00 0.00 0.00 82 1015.2
20260510034025 10 304 0.0 0.0 0.00 0.00 0.00 82 1015.2
20260510033546 10 297 0.0 1.6 0.00 0.00 0.00 82 1015.3
20260510033005 10 314 0.0 3.2 0.00 0.00 0.00 82 1015.3
20260510032529 10 272 0.0 3.2 0.00 0.00 0.00 81 1015.2
20260510032055 10 304 0.0 3.2 0.00 0.00 0.00 81 1015.2
20260510031508 10 319 0.0 3.2 0.00 0.00 0.00 81 1015.2
20260510031022 10 300 0.0 0.0 0.00 0.00 0.00 81 1015.3
20260510030001 10 291 0.0 0.0 0.00 0.00 0.00 81 1015.4
20260510025522 10 295 0.0 0.0 0.00 0.00 0.00 81 1015.4
20260510025036 10 307 0.0 0.0 0.00 0.00 0.00 80 1015.4
20260510024652 10 301 0.0 0.0 0.00 0.00 0.00 80 1015.5
20260510024025 10 310 0.0 1.6 0.00 0.00 0.00 79 1015.5
20260510023551 10 319 0.0 1.6 0.00 0.00 0.00 79 1015.5
20260510023003 10 315 0.0 0.0 0.00 0.00 0.00 79 1015.5
20260510022516 10 309 0.0 0.0 0.00 0.00 0.00 79 1015.5
20260510022033 10 309 0.0 0.0 0.00 0.00 0.00 78 1015.5
20260510021606 10 301 0.0 0.0 0.00 0.00 0.00 78 1015.5
20260510021039 10 288 0.0 3.2 0.00 0.00 0.00 77 1015.5
20260510020607 10 288 0.0 3.2 0.00 0.00 0.00 77 1015.5
20260510020010 10 298 0.0 0.0 0.00 0.00 0.00 77 1015.5
20260510015536 10 310 0.0 0.0 0.00 0.00 0.00 77 1015.6
20260510015104 10 320 0.0 0.0 0.00 0.00 0.00 77 1015.6
20260510014535 10 315 0.0 0.0 0.00 0.00 0.00 76 1015.6
20260510014048 10 296 0.0 3.2 0.00 0.00 0.00 76 1015.7
20260510012536 10 317 0.0 1.6 0.00 0.00 0.00 76 1015.7
20260510012050 10 296 0.0 0.0 0.00 0.00 0.00 75 1015.8
20260510011515 11 278 0.0 0.0 0.00 0.00 0.00 75 1015.9
20260510011034 11 293 0.0 0.0 0.00 0.00 0.00 75 1015.9
20260510010553 11 290 0.0 0.0 0.00 0.00 0.00 75 1015.9
20260510010048 11 291 0.0 0.0 0.00 0.00 0.00 74 1015.9
20260510005550 11 274 0.0 0.0 0.00 0.00 0.00 74 1015.9
20260510005003 11 275 0.0 1.6 0.00 0.00 0.00 74 1016.0
20260510004507 11 275 0.0 1.6 0.00 0.00 0.00 74 1015.9
20260510004008 11 323 0.0 3.2 0.00 0.00 0.00 74 1016.0
20260510003534 11 302 0.0 3.2 0.00 0.00 0.00 74 1016.0
20260510003043 11 305 0.0 0.0 0.00 0.00 0.00 73 1016.1
20260510002605 11 306 0.0 0.0 0.00 0.00 0.00 73 1016.1
20260510002010 11 315 0.0 0.0 0.00 0.00 0.00 73 1016.2
20260510001526 11 319 0.0 0.0 0.00 0.00 0.00 73 1016.2
20260510001104 11 323 0.0 0.0 0.00 0.00 0.00 72 1016.2
20260510000619 11 328 0.0 0.0 0.00 0.00 0.00 72 1016.2
20260510000056 11 287 0.0 0.0 0.00 0.00 0.00 72 1016.2
20260509235606 11 307 0.0 0.0 0.00 0.00 0.00 72 1016.3
20260509235010 12 298 0.0 0.0 0.00 0.00 0.00 71 1016.3
20260509234537 12 307 0.0 0.0 0.00 0.00 0.00 71 1016.3
20260509234106 12 288 0.0 0.0 0.00 0.00 0.00 71 1016.3
20260509233503 12 293 0.0 0.0 0.00 0.00 0.00 70 1016.4
20260509233032 12 293 0.0 0.0 0.00 0.00 0.00 70 1016.4
20260509232555 12 291 0.0 0.0 0.00 0.00 0.00 70 1016.4
20260509232122 12 297 0.0 0.0 0.00 0.00 0.00 69 1016.5
20260509231507 12 299 0.0 0.0 0.00 0.00 0.00 69 1016.5
20260509231023 12 299 0.0 0.0 0.00 0.00 0.00 69 1016.5
20260509230543 12 300 0.0 0.0 0.00 0.00 0.00 69 1016.5
20260509230038 12 276 0.0 0.0 0.00 0.00 0.00 69 1016.6
20260509225558 12 269 0.0 0.0 0.00 0.00 0.00 69 1016.5
20260509225048 12 276 0.0 0.0 0.00 0.00 0.00 69 1016.5
20260509224502 12 286 0.0 0.0 0.00 0.00 0.00 69 1016.4
20260509224118 12 301 0.0 0.0 0.00 0.00 0.00 69 1016.4
20260509223536 12 276 0.0 0.0 0.00 0.00 0.00 69 1016.3
20260509223053 12 326 0.0 0.0 0.00 0.00 0.00 69 1016.4
20260509222557 13 314 0.0 0.0 0.00 0.00 0.00 68 1016.5
20260509222059 13 304 0.0 0.0 0.00 0.00 0.00 68 1016.5
20260509221510 13 303 0.0 0.0 0.00 0.00 0.00 68 1016.5
20260509221027 13 290 0.0 0.0 0.00 0.00 0.00 68 1016.5
20260509220537 13 300 0.0 0.0 0.00 0.00 0.00 68 1016.4
20260509220029 13 289 0.0 0.0 0.00 0.00 0.00 67 1016.4
20260509215533 13 285 0.0 0.0 0.00 0.00 0.00 67 1016.5
20260509215053 13 285 0.0 0.0 0.00 0.00 0.00 67 1016.5
20260509214559 13 296 0.0 0.0 0.00 0.00 0.00 67 1016.5
20260509214046 13 295 0.0 0.0 0.00 0.00 0.00 66 1016.5
20260509213531 13 285 0.0 0.0 0.00 0.00 0.00 67 1016.5
20260509213114 13 297 0.0 0.0 0.00 0.00 0.00 67 1016.5
20260509212520 13 297 0.0 0.0 0.00 0.00 0.00 66 1016.6
20260509212045 13 297 0.0 0.0 0.00 0.00 0.00 66 1016.6
20260509211508 14 297 0.0 0.0 0.00 0.00 0.00 65 1016.6
20260509211012 14 288 0.0 0.0 0.00 0.00 0.00 65 1016.4
20260509210540 14 342 0.0 0.0 0.00 0.00 0.00 66 1016.4
20260509210018 14 340 0.0 0.0 0.00 0.00 0.00 65 1016.3
20260509205533 14 2 0.0 0.0 0.00 0.00 0.00 66 1016.3
20260509205044 14 295 0.0 1.6 0.00 0.00 0.00 65 1016.3
20260509204556 14 298 0.0 1.6 0.00 0.00 0.00 65 1016.4
20260509204007 14 304 0.0 0.0 0.00 0.00 0.00 65 1016.4
20260509203533 14 299 0.0 0.0 0.00 0.00 0.00 64 1016.4
20260509203101 14 310 0.0 0.0 0.00 0.00 0.00 64 1016.5
20260509202520 15 300 0.0 3.2 0.00 0.00 0.00 64 1016.4
20260509202040 15 303 0.0 3.2 0.00 0.00 0.00 64 1016.5
20260509201607 15 300 0.0 3.2 0.00 0.00 0.00 63 1016.4
20260509201016 15 293 0.0 0.0 0.00 0.00 0.00 62 1016.4
20260509200552 15 296 0.0 0.0 0.00 0.00 0.00 62 1016.3
20260509200004 15 297 0.0 1.6 0.00 0.00 0.00 62 1016.3
20260509195527 15 301 0.0 3.2 0.00 0.00 0.00 61 1016.2
20260509195042 15 296 0.0 4.8 0.00 0.00 0.00 61 1016.2
20260509194540 15 305 0.0 0.0 0.00 0.00 0.00 60 1016.1
20260509194018 16 307 0.0 0.0 0.00 0.00 0.00 59 1016.1
20260509193547 16 307 0.0 3.2 0.00 0.00 0.00 59 1016.2
20260509193103 16 290 0.0 3.2 0.00 0.00 0.00 58 1016.1
20260509192603 16 357 0.0 0.0 0.00 0.00 0.00 58 1016.1
20260509192054 16 290 0.0 0.0 0.00 0.00 0.00 56 1016.0
20260509191519 17 298 0.0 0.0 0.00 0.00 0.00 55 1015.9
20260509191038 17 304 0.0 0.0 0.00 0.00 0.00 54 1016.0
20260509190604 17 289 0.0 0.0 0.00 0.00 0.00 54 1016.0
20260509190008 17 289 0.0 0.0 0.00 0.00 0.00 53 1015.9
20260509185548 17 297 0.0 0.0 0.00 0.00 0.00 53 1015.9
20260509185028 18 297 0.0 0.0 0.00 0.00 0.00 52 1015.9
20260509184536 18 297 0.0 0.0 0.00 0.00 0.00 52 1015.8
20260509184048 18 297 0.0 0.0 0.00 0.00 0.00 51 1015.8
20260509183555 18 297 0.0 0.0 0.00 0.00 0.00 50 1015.7
20260509183002 18 291 0.0 0.0 0.00 0.00 0.00 50 1015.7
20260509182521 19 288 0.0 1.6 0.00 0.00 0.00 49 1015.7
20260509182043 19 285 0.0 1.6 0.00 0.00 0.00 48 1015.8
20260509181505 20 270 0.0 0.0 0.00 0.00 0.00 48 1015.8
20260509181031 20 281 0.0 1.6 0.00 0.00 0.00 48 1015.8
20260509180508 20 299 0.0 1.6 0.00 0.00 0.00 47 1015.8
20260509180035 20 272 0.0 0.0 0.00 0.00 0.00 46 1015.8
20260509175556 20 272 0.0 1.6 0.00 0.00 0.00 45 1016.0
20260509175009 20 272 0.0 3.2 0.00 0.00 0.00 47 1015.9
20260509174529 20 353 0.0 3.2 0.00 0.00 0.00 47 1015.9
20260509174045 20 296 0.0 6.4 0.00 0.00 0.00 46 1015.8
20260509173501 20 271 0.0 8.0 0.00 0.00 0.00 48 1015.8
20260509173007 20 334 1.6 9.7 0.00 0.00 0.00 48 1015.7
20260509172533 20 5 0.0 9.7 0.00 0.00 0.00 47 1015.6
20260509172053 20 280 1.6 9.7 0.00 0.00 0.00 46 1015.7
20260509171506 20 305 0.0 0.0 0.00 0.00 0.00 46 1015.6
20260509171017 21 280 0.0 3.2 0.00 0.00 0.00 44 1015.5
20260509170505 21 359 0.0 6.4 0.00 0.00 0.00 44 1015.6
20260509170005 21 338 0.0 6.4 0.00 0.00 0.00 45 1015.6
20260509165529 20 276 0.0 6.4 0.00 0.00 0.00 45 1015.7
20260509165057 20 294 1.6 6.4 0.00 0.00 0.00 45 1015.7
20260509164518 21 301 3.2 8.0 0.00 0.00 0.00 45 1015.7
20260509164046 21 306 1.6 8.0 0.00 0.00 0.00 45 1015.8
20260509163505 21 312 3.2 6.4 0.00 0.00 0.00 46 1015.8
20260509163039 21 324 0.0 3.2 0.00 0.00 0.00 43 1015.8
20260509162548 21 326 0.0 4.8 0.00 0.00 0.00 44 1015.8
20260509162100 21 260 0.0 4.8 0.00 0.00 0.00 44 1015.7
20260509161502 21 255 0.0 3.2 0.00 0.00 0.00 42 1015.7
20260509161022 21 4 0.0 4.8 0.00 0.00 0.00 43 1015.8
20260509160549 21 6 0.0 3.2 0.00 0.00 0.00 44 1015.7
20260509155515 20 278 0.0 6.4 0.00 0.00 0.00 48 1015.8
20260509155014 20 306 0.0 4.8 0.00 0.00 0.00 46 1015.7
20260509154539 21 308 0.0 1.6 0.00 0.00 0.00 46 1015.7
20260509154049 21 26 0.0 3.2 0.00 0.00 0.00 42 1015.7
20260509153511 22 354 0.0 3.2 0.00 0.00 0.00 43 1015.7
20260509153029 22 274 0.0 3.2 0.00 0.00 0.00 44 1015.8
20260509152519 22 44 0.0 1.6 0.00 0.00 0.00 44 1016.0
20260509152039 21 44 0.0 8.0 0.00 0.00 0.00 46 1015.9
20260509151540 21 291 0.0 8.0 0.00 0.00 0.00 42 1016.0
20260509151020 21 15 0.0 1.6 0.00 0.00 0.00 45 1016.1
20260509150607 21 15 0.0 1.6 0.00 0.00 0.00 45 1016.0
20260509150032 21 11 0.0 1.6 0.00 0.00 0.00 44 1016.1
20260509145544 21 255 0.0 1.6 0.00 0.00 0.00 43 1016.1
20260509145054 22 271 0.0 4.8 0.00 0.00 0.00 44 1016.1
20260509144504 22 271 0.0 4.8 0.00 0.00 0.00 42 1016.2
20260509144029 22 131 0.0 1.6 0.00 0.00 0.00 42 1016.1
20260509143533 22 131 0.0 0.0 0.00 0.00 0.00 42 1016.2
20260509143100 22 131 0.0 0.0 0.00 0.00 0.00 46 1016.2
20260509142519 22 131 0.0 3.2 0.00 0.00 0.00 45 1016.3
20260509142046 22 123 0.0 3.2 0.00 0.00 0.00 42 1016.3
20260509141607 22 202 0.0 1.6 0.00 0.00 0.00 41 1016.3
20260509141020 22 195 0.0 1.6 0.00 0.00 0.00 43 1016.4
20260509140641 22 91 0.0 1.6 0.00 0.00 0.00 45 1016.4
20260509140024 21 91 0.0 0.0 0.00 0.00 0.00 45 1016.5
20260509135547 21 311 0.0 3.2 0.00 0.00 0.00 46 1016.5
20260509135007 21 322 0.0 6.4 0.00 0.00 0.00 48 1016.5
20260509134528 21 305 0.0 6.4 0.00 0.00 0.00 46 1016.6
20260509134055 21 18 0.0 0.0 0.00 0.00 0.00 46 1016.6
20260509133511 21 18 0.0 3.2 0.00 0.00 0.00 46 1016.6
20260509133011 21 18 0.0 3.2 0.00 0.00 0.00 46 1016.7
20260509132537 21 23 0.0 3.2 0.00 0.00 0.00 47 1016.7
20260509132054 21 309 0.0 3.2 0.00 0.00 0.00 42 1016.7
20260509131511 21 49 0.0 0.0 0.00 0.00 0.00 46 1016.9
20260509131029 21 49 0.0 1.6 0.00 0.00 0.00 47 1016.9
20260509130513 21 49 0.0 4.8 0.00 0.00 0.00 48 1017.0
20260509130020 20 49 0.0 4.8 0.00 0.00 0.00 48 1017.0
20260509125637 20 232 0.0 4.8 0.00 0.00 0.00 51 1017.1
20260509125004 20 297 1.6 6.4 0.00 0.00 0.00 50 1017.2
20260509124519 20 20 1.6 6.4 0.00 0.00 0.00 48 1017.3
20260509124043 20 7 0.0 9.7 0.00 0.00 0.00 45 1017.2
20260509123536 20 300 1.6 9.7 0.00 0.00 0.00 47 1017.2
20260509123018 21 349 0.0 1.6 0.00 0.00 0.00 47 1017.3
20260509122543 21 25 0.0 1.6 0.00 0.00 0.00 46 1017.4
20260509122004 21 278 0.0 1.6 0.00 0.00 0.00 47 1017.4
20260509121531 21 278 0.0 1.6 0.00 0.00 0.00 44 1017.5
20260509121033 21 277 0.0 0.0 0.00 0.00 0.00 46 1017.5
20260509120104 20 277 0.0 1.6 0.00 0.00 0.00 45 1017.6
20260509115012 20 298 1.6 3.2 0.00 0.00 0.00 43 1017.7
20260509114507 20 264 0.0 3.2 0.00 0.00 0.00 47 1017.7
20260509114026 20 279 0.0 1.6 0.00 0.00 0.00 47 1017.8
20260509113531 20 274 0.0 3.2 0.00 0.00 0.00 47 1017.8
20260509113057 20 311 0.0 3.2 0.00 0.00 0.00 46 1017.9
20260509112514 20 335 0.0 1.6 0.00 0.00 0.00 50 1017.9
20260509112041 20 335 0.0 3.2 0.00 0.00 0.00 50 1018.0
20260509111503 20 340 0.0 3.2 0.00 0.00 0.00 48 1018.0
20260509084100 15 278 0.0 0.0 0.00 0.00 0.00 71 1018.4
20260509083505 15 278 0.0 0.0 0.00 0.00 0.00 70 1018.5
20260509083025 14 278 0.0 0.0 0.00 0.00 0.00 71 1018.5
20260509082528 14 278 0.0 0.0 0.00 0.00 0.00 71 1018.5
20260509082055 13 278 0.0 0.0 0.00 0.00 0.00 71 1018.6
20260509081555 13 278 0.0 0.0 0.00 0.00 0.00 72 1018.7
20260509081012 13 278 0.0 0.0 0.00 0.00 0.00 73 1018.8
20260509080533 13 278 0.0 0.0 0.00 0.00 0.00 73 1018.9
20260509080044 13 278 0.0 0.0 0.00 0.00 0.00 74 1018.9
20260509075600 13 278 0.0 0.0 0.00 0.00 0.00 74 1018.9
20260509075018 13 278 0.0 0.0 0.00 0.00 0.00 75 1019.0
20260509074522 13 278 0.0 0.0 0.00 0.00 0.00 76 1018.9
20260509074040 13 278 0.0 1.6 0.00 0.00 0.00 77 1019.0
20260509073552 13 278 0.0 1.6 0.00 0.00 0.00 75 1019.0
20260509073108 12 278 0.0 0.0 0.00 0.00 0.00 76 1018.9
20260509072508 12 278 0.0 0.0 0.00 0.00 0.00 77 1019.0
20260509072012 12 278 0.0 0.0 0.00 0.00 0.00 76 1019.0
20260509071513 12 278 0.0 0.0 0.00 0.00 0.00 77 1019.0
20260509071027 12 278 0.0 0.0 0.00 0.00 0.00 79 1019.1
20260509070551 12 278 0.0 0.0 0.00 0.00 0.00 79 1019.0
20260509070043 12 278 0.0 0.0 0.00 0.00 0.00 79 1019.0
20260509065607 11 278 0.0 0.0 0.00 0.00 0.00 80 1019.0
20260509065003 11 278 0.0 0.0 0.00 0.00 0.00 82 1019.0
20260509064627 11 278 0.0 0.0 0.00 0.00 0.00 84 1019.0